Volver al catálogo

CZ-4C DEB

ActivoPO
NORAD 43266·DEBRIS·🇨🇳 China

Lanzado Mar 31, 2018 desde Taiyuan Satellite Launch Center

Loading…

Próximos Pases (próximas 24 horas)

TLE

ActualizadoSource: Space-Track

Época: Sep 14, 2026, 00:01 UTC

1 43266U 18031H   26257.00116130  .00008116  00000-0  40624-3 0  9993
2 43266  98.1707  85.7721 0018828 354.3874   5.7144 15.17551520460234

Sigue CZ-4C DEB en tiempo real con AllMySat

Download on the App Store